Location: Marsån
(66.4167°N, 22.2833°E)
Time: 11:13:39
(UTC+00:00)

Cosmos 1980 - Pass Details

Date: 24 February 2024
Orbit: 840 x 845 km, 71.0° (Epoch: 15 April)

Event Time Altitude Azimuth Distance (km) Brightness Sun altitude
Rises 17:20:12 0° 288° (WNW) 3,415 8.6 -12.3°
Reaches altitude 10° 17:22:42 10° 292° (WNW) 2,479 7.4 -12.5°
Maximum altitude 17:28:19 58° 11° (NNE) 991 4.0 -13.1°
Enters shadow 17:32:25 19° 86° (E) 1,930 4.9 -13.5°
